Hourly Data Report for October 01, 2017

All times are specified in Local Standard Time (LST). Add 1 hour to adjust for Daylight Saving Time where and when it is observed.

GIMLI CLIMATE
MANITOBA

50°38'00.000" N
97°03'00.000" W
230.10 m
5031042
71748
PGH

Download Data

Hourly Data (October 2017)
Hourly Data Report for October 1, 2017
Temp Definition
°C
Dew Point Temp Definition
°C
Rel Hum Definition
%
Wind Dir Definition
10's deg

Wind Spd Definition
km/h
Visibility Definition
km
Stn Press Definition
kPa
Hmdx Definition


Wind Chill Definition


Weather Definition


TIME
00:00 14.9 10.2 73 14 17   98.13     LegendNANA
01:00 14.3 10.1 76 13 17   98.05     LegendNANA
02:00 14.1 10.1 77 14 14   97.97     LegendNANA
03:00 14.5 9.7 73 14 16   97.93     LegendNANA
04:00 13.2 9.8 80 13 11   97.90     LegendNANA
05:00 12.8 9.8 82 13 11   97.85     LegendNANA
06:00 12.8 9.6 81 13 12   97.79     LegendNANA
07:00 13.1 9.5 79 13 16   97.79     LegendNANA
08:00 13.8 9.8 77 15 16   97.78     LegendNANA
09:00 14.4 9.9 74 15 18   97.78     LegendNANA
10:00 16.6 10.5 68 14 15   97.77     LegendNANA
11:00 17.1 10.8 67 15 21   97.74     LegendNANA
12:00 16.0 11.0 73 14 17   97.73     LegendNANA
13:00 15.5 11.3 76 15 23   97.67     LegendNANA
14:00 14.9 11.8 82 15 18   97.58     LegendNANA
15:00 14.2 12.6 90 13 13   97.53     LegendNANA
16:00 13.9 12.7 93 13 16   97.51     LegendNANA
17:00 13.7 12.6 93 13 13   97.52     LegendNANA
18:00 13.5 12.5 94 14 15   97.51     LegendNANA
19:00 13.5 12.6 94 15 17   97.54     LegendNANA
20:00 13.4 12.6 95 13 13   97.56     LegendNANA
21:00 13.6 12.8 95 14 13   97.58     LegendNANA
22:00 13.6 12.5 93 14 13   97.52     LegendNANA
23:00 13.5 12.6 94 13 13   97.52     LegendNANA

Notes on Data Quality.

Legend

  • E = Estimated
  • M = Missing
  • NA = Not Available
  • ‡ = Partner data that is not subject to review by the National Climate Archives
Date modified: